Simultaneous Nadir Overpasses (SNOs) Predictions

Prediction of SNOs between NOAA-20 and NOAA-19 Satellite Orbit:

Table of predicted SNOs for the next 14.0 days since TLE Epoch: 6/20/2020
Index Date (NOAA-20) Time (NOAA-20) Lat,Lon (NOAA-20) SZA (NOAA-20 ) Date (NOAA-19) Time (NOAA-19) Lat,Lon (NOAA-19) SZA (NOAA-19 ) Distance(km) Time Diff (sec)
1 06/26/2020 00:59:41 79.28, 132.63 57.79 06/26/2020 00:58:29 79.28, 132.59 57.82 0.89 72
2 06/26/2020 01:50:26 -79.29, -60.13 122.20 06/26/2020 01:49:33 -79.29, -60.01 122.18 2.48 53
3 06/26/2020 02:41:11 79.28, 107.22 57.80 06/26/2020 02:40:29 79.29, 107.25 57.82 1.10 42
4 06/26/2020 03:31:56 -79.29, -85.54 122.19 06/26/2020 03:31:34 -79.28, -85.62 122.18 2.27 22
5 06/26/2020 04:22:40 79.29, 81.81 57.81 06/26/2020 04:22:28 79.31, 81.91 57.82 3.08 12
6 06/26/2020 05:13:25 -79.30,-110.94 122.18 06/26/2020 05:13:33 -79.30,-110.96 122.18 0.37 8
7 06/26/2020 06:04:10 79.29, 56.40 57.82 06/26/2020 06:04:29 79.30, 56.29 57.83 2.28 19
8 06/26/2020 06:54:55 -79.30,-136.35 122.17 06/26/2020 06:55:33 -79.32,-136.30 122.18 1.87 38
9 06/26/2020 07:45:40 79.30, 30.99 57.83 06/26/2020 07:46:29 79.31, 30.95 57.83 1.99 49
10 06/26/2020 08:36:25 -79.31,-161.76 122.16 06/26/2020 08:37:34 -79.30,-161.91 122.17 3.19 69




NCC Satellite Simultaneous Nadir Overpasses (SNOs) Prediction Service
